Lapse_Rate
6.6 6.6 6.5 6.5 6.6 6.5 6.4 6.3 6.2 6.1 5.9 5.6 5.4 5.6 5.7 5.7 5.6 3.2 3.3 2.2 2.2 2.6 4.3 5.4 5.8 4.9 4.6 3.9 6.5 5.5 5.8 5.5 6.2 6.5 6.5 6.5 6.5 6.5 6.5 6.5 6.5 6.5 6.5 6.5 6.5 6.5 6.5 6.4 6.4 6.5 6.3 6.1 6.2 5.9
6.1 6.1 6.2 6.3 6.4 6.4 6.3 6.1 6.0 5.9 5.8 5.6 5.5 5.7 5.9 5.8 5.5 4.0 2.6 2.7 2.7 1.6 4.2 4.3 5.8 6.1 6.0 5.2 3.6 4.3 4.8 5.7 5.0 6.5 6.5 6.5 6.5 6.5 6.5 6.5 6.5 6.5 6.5 6.5 6.5 6.5 6.1 5.9 5.8 5.7 5.4 5.6 5.9 6.1
5.9 6.0 6.1 6.2 6.2 6.2 6.0 6.0 6.0 6.0 6.0 6.0 6.0 6.0 6.0 6.0 5.9 4.1 2.8 2.8 1.1 -0.4 1.8 3.2 5.6 6.9 5.1 4.9 4.4 3.2 3.6 4.9 4.8 5.4 5.6 6.4 6.5 6.5 6.5 6.5 6.5 6.5 6.3 6.5 6.5 6.5 6.5 6.0 6.3 6.4 6.4 6.2 6.5 6.2
6.2 6.2 6.3 6.3 6.2 6.2 6.3 6.3 6.2 6.1 6.0 6.0 6.0 5.9 5.9 6.0 6.0 4.7 2.7 2.6 1.7 1.1 3.4 3.9 5.7 6.6 6.6 5.7 5.0 5.1 5.3 4.8 4.2 3.0 1.4 6.5 6.5 5.7 6.5 6.5 6.5 6.2 6.4 6.5 6.5 6.5 6.4 6.3 6.0 6.3 6.5 6.5 6.9 7.1
6.4 6.3 6.3 6.3 6.3 6.3 6.3 6.2 6.1 6.2 6.2 6.2 6.0 5.9 6.0 6.1 6.1 4.9 3.7 4.2 3.5 3.3 4.5 3.4 3.5 4.7 5.3 5.0 5.7 4.9 4.6 4.3 1.7 3.8 5.5 6.5 5.3 6.1 6.2 6.5 6.5 5.9 6.5 6.5 6.5 6.3 6.3 6.5 6.7 7.2 7.2 7.4 7.6 7.3
6.3 6.3 6.2 6.3 6.3 6.2 6.2 6.2 6.2 6.1 6.1 6.2 6.1 6.1 6.2 6.2 5.7 3.9 6.2 4.6 5.5 3.7 2.7 6.4 3.9 4.8 5.3 5.9 5.0 4.5 4.1 3.7 1.0 1.8 2.9 2.2 4.6 4.2 6.5 6.5 6.2 5.4 5.8 5.7 6.4 6.4 6.4 6.8 7.5 7.8 7.7 7.6 7.6 7.5
6.2 6.2 6.3 6.3 6.4 6.3 6.3 6.3 6.3 6.2 6.2 6.3 6.3 6.3 6.2 6.0 3.7 4.1 4.5 4.4 5.8 4.4 2.7 6.0 5.7 4.4 6.6 6.2 3.9 4.3 4.3 3.8 2.5 1.0 2.9 4.7 5.1 4.2 6.5 6.5 6.4 6.7 6.8 6.9 6.8 6.6 6.8 7.2 7.2 7.5 7.8 7.9 8.2 8.0
6.6 6.5 6.5 6.5 6.5 6.4 6.3 6.2 6.2 6.3 6.2 6.1 6.1 6.2 6.3 6.4 5.8 5.1 4.6 6.9 6.0 5.1 5.1 6.5 6.5 4.5 5.8 3.1 2.8 2.9 1.7 0.7 1.2 2.6 3.7 5.8 5.2 5.9 6.5 6.4 6.2 6.9 6.7 6.1 7.2 7.3 7.4 7.5 7.7 7.7 7.9 8.0 7.0 7.2
6.5 6.4 6.4 6.3 6.2 6.2 6.2 6.5 6.5 6.5 6.4 6.3 6.3 6.4 4.8 4.4 5.7 6.8 7.3 7.3 6.0 5.0 3.1 5.2 6.5 6.5 3.9 4.1 3.7 3.7 4.1 6.5 4.5 6.5 6.3 5.5 6.5 6.5 6.5 6.6 6.9 6.8 6.6 6.8 6.6 5.9 7.3 7.3 7.4 7.6 7.7 7.4 7.2 7.3
6.4 6.3 6.3 6.2 6.3 6.5 6.5 6.6 6.5 6.5 6.5 6.5 5.1 2.7 2.1 5.7 6.8 6.2 6.1 4.6 5.5 4.5 4.2 5.9 3.9 6.5 4.0 4.0 4.4 4.3 4.8 6.5 6.5 6.4 5.3 6.5 6.5 6.7 6.5 6.5 6.6 6.8 6.5 6.4 6.1 6.6 7.0 7.1 7.3 7.1 7.0 6.8 6.7 6.7
6.4 6.4 6.6 6.7 6.7 6.6 6.6 6.5 6.5 6.5 6.2 4.3 3.5 4.0 5.4 6.8 5.0 3.4 2.1 4.1 3.6 6.3 4.5 5.1 4.5 6.1 5.3 6.5 6.5 4.9 6.5 6.5 6.5 6.5 6.5 6.5 6.5 6.4 6.2 6.2 6.3 6.3 6.5 6.7 6.6 6.7 7.2 7.2 7.1 7.0 6.7 6.7 6.5 6.5
6.9 6.9 6.9 6.8 6.7 6.6 6.6 6.8 6.9 5.0 5.3 6.0 6.6 5.5 4.9 6.2 4.7 6.2 6.5 6.0 6.5 6.5 5.3 5.1 3.8 4.0 5.2 6.3 6.5 6.4 6.5 6.5 6.5 6.3 6.5 6.5 6.5 6.0 6.1 6.7 6.7 6.4 6.1 5.9 6.1 5.5 6.2 6.6 6.7 7.0 6.8 6.5 6.4 5.9
6.5 6.7 6.8 6.7 6.7 6.7 6.7 6.9 6.8 6.9 6.4 5.7 5.4 5.4 5.5 3.7 6.5 6.5 6.5 6.5 6.5 4.0 4.2 3.3 6.0 4.6 6.3 5.9 6.5 6.5 6.5 6.5 6.3 6.5 6.5 6.5 5.9 6.3 6.3 6.5 6.4 6.3 5.9 5.2 5.2 5.6 5.8 6.0 6.2 6.7 6.7 6.7 6.4 5.8
6.6 6.8 6.8 6.8 6.8 6.8 6.9 7.0 6.9 6.4 5.1 4.7 2.8 6.5 6.5 6.5 6.5 6.5 6.5 6.5 6.2 3.4 3.7 3.1 4.5 6.0 6.4 6.5 6.5 6.5 6.5 6.5 6.5 6.5 6.5 6.5 5.9 6.1 6.4 6.1 6.0 5.8 5.4 4.9 5.2 5.6 5.4 5.5 5.6 5.6 6.6 6.7 6.3 5.8
6.7 6.8 6.9 6.8 6.8 6.9 7.0 6.8 6.8 5.5 5.2 6.2 5.1 6.5 6.5 4.4 3.3 3.6 3.7 4.7 5.2 5.1 4.9 3.6 3.6 4.9 6.5 6.5 6.5 6.5 6.5 6.5 6.5 6.5 6.5 6.0 6.8 5.8 5.8 5.7 5.5 5.1 4.3 4.7 5.4 4.9 4.6 4.0 4.4 4.4 6.0 6.3 5.5 6.0
6.9 6.8 6.1 7.0 7.0 7.0 6.8 6.9 6.2 6.1 5.7 5.4 5.9 5.5 2.9 4.5 3.4 1.0 2.5 3.4 4.9 5.2 4.6 4.2 6.5 6.5 6.5 6.5 6.5 6.5 6.5 6.5 6.5 6.5 5.8 5.5 6.4 5.4 5.0 5.2 5.1 4.6 4.0 3.5 3.5 3.6 3.8 3.3 4.2 4.7 5.0 6.1 5.2 4.8
7.3 5.8 7.1 7.2 7.2 7.2 7.1 5.8 5.5 5.3 5.1 5.8 4.8 2.5 2.8 1.9 2.7 1.5 2.5 3.7 4.7 4.2 6.5 6.1 6.5 6.5 6.5 6.5 6.5 6.5 6.5 6.5 3.5 3.4 4.0 4.8 4.8 5.0 4.9 4.8 2.9 3.5 4.1 3.8 3.2 2.8 2.0 3.2 2.3 3.4 5.5 5.8 5.1 4.2
6.5 6.4 7.8 7.4 6.6 7.1 7.0 6.8 6.3 6.6 6.7 5.5 4.9 2.3 1.8 1.9 1.9 1.4 2.3 3.5 3.8 3.5 4.6 6.3 4.4 6.5 6.5 6.5 6.5 6.4 2.3 2.4 5.0 4.2 4.0 3.9 4.3 4.8 4.9 5.1 4.4 4.3 4.4 3.7 3.0 2.6 2.5 2.2 4.0 4.5 4.4 5.5 6.4 6.4
6.5 7.3 7.2 7.1 6.1 5.3 5.9 6.3 6.2 6.4 5.7 3.9 2.9 1.9 2.0 1.9 1.7 2.3 2.2 3.0 3.6 4.1 5.9 4.2 6.5 6.5 6.5 5.7 5.5 2.3 2.2 2.3 2.7 2.4 2.4 2.5 3.9 4.0 4.0 4.5 4.6 4.6 4.2 3.3 4.2 4.1 4.0 4.9 4.7 4.2 4.3 4.6 6.5 7.1
7.1 7.0 6.9 7.7 7.5 6.3 6.8 6.1 6.1 5.7 5.8 3.8 2.5 2.4 2.7 2.5 2.8 0.8 2.9 2.8 3.7 4.7 6.3 6.5 6.5 6.0 3.4 2.1 2.2 2.5 2.4 2.5 3.4 3.7 3.5 2.9 4.1 4.3 4.5 5.2 4.4 4.7 4.8 5.3 4.6 3.4 3.5 4.0 4.1 4.3 3.4 3.4 5.9 6.2
6.9 6.3 7.3 6.8 6.8 6.5 5.4 4.7 5.2 4.9 5.0 4.4 3.1 3.7 3.2 2.2 2.6 2.4 4.3 3.3 3.6 5.1 6.5 4.6 3.8 3.6 2.3 2.6 2.4 2.8 3.2 4.3 5.3 5.4 5.1 3.0 3.2 3.9 4.4 4.4 4.7 4.3 3.8 3.7 3.3 3.7 2.7 3.3 4.3 3.7 1.5 0.8 1.9 3.8
5.3 7.2 6.3 7.1 6.0 6.2 5.9 4.8 5.1 4.6 4.5 3.9 4.0 4.7 3.2 3.2 2.4 3.0 3.8 3.8 4.5 5.5 3.7 4.1 4.1 3.3 3.6 4.7 4.1 5.6 6.0 6.2 6.2 6.1 6.2 6.8 7.2 7.0 5.9 5.0 4.8 3.8 3.5 2.8 4.1 4.2 4.6 4.6 5.0 3.2 1.6 1.8 2.1 2.7
7.0 7.1 6.3 6.3 6.2 4.5 4.6 4.2 6.3 5.6 6.5 5.7 4.1 5.6 5.4 4.4 3.8 3.8 2.9 4.0 3.4 4.3 4.3 4.7 5.2 5.5 5.9 5.8 6.5 6.3 6.1 7.1 6.3 6.3 6.8 7.0 6.9 6.5 5.7 4.9 5.2 4.6 5.0 5.3 6.1 5.4 4.5 4.0 5.2 3.1 2.8 2.3 1.9 3.0
6.6 6.3 5.9 6.4 6.5 6.0 5.2 4.8 5.5 5.6 4.1 6.1 6.5 6.5 6.5 4.3 3.6 4.1 6.5 4.6 5.9 5.6 4.7 4.6 5.2 5.5 5.9 6.2 6.4 6.1 5.9 5.9 6.7 7.0 6.2 6.2 6.4 6.0 6.1 6.3 6.7 7.1 6.7 6.0 5.6 5.2 5.0 4.2 2.0 2.7 2.6 1.9 1.7 2.4
6.4 5.7 6.1 6.1 3.5 5.1 6.5 6.5 6.5 6.5 6.5 6.5 6.5 6.5 6.5 3.0 6.5 6.5 6.5 6.4 6.6 6.2 4.9 4.6 5.2 6.2 6.4 5.3 5.4 5.6 5.6 6.1 6.1 6.6 6.5 6.9 6.9 6.1 5.5 5.8 6.0 6.7 6.2 4.5 3.8 3.3 2.7 2.5 1.3 1.5 2.7 3.0 4.4 4.7
6.5 5.1 6.2 6.2 5.2 6.4 6.5 6.5 6.5 6.5 6.5 6.5 6.5 3.9 2.5 6.5 6.5 6.5 6.5 5.2 5.2 4.9 3.2 3.0 3.9 4.3 5.1 6.0 6.0 5.8 4.8 5.4 5.9 5.3 5.4 6.6 6.4 7.1 6.2 5.6 3.7 3.7 6.0 3.9 2.4 3.5 4.2 4.7 5.0 5.0 4.8 5.2 5.4 5.7
6.5 6.5 6.2 5.6 5.9 6.0 5.6 3.4 4.9 6.2 6.5 6.5 6.5 6.5 6.5 6.5 6.5 6.5 4.1 3.0 3.8 3.6 4.7 4.8 4.8 4.4 4.5 4.4 4.7 4.4 4.6 5.2 5.8 6.4 6.8 6.6 7.0 7.5 6.1 3.1 4.0 5.1 6.2 5.2 4.2 4.1 4.2 5.1 5.1 5.2 5.4 5.5 6.1 6.5
5.5 5.4 6.5 5.0 4.5 4.6 6.5 6.5 6.5 6.5 6.5 5.0 5.5 6.5 6.5 6.5 6.5 5.1 5.2 5.3 5.4 5.1 4.3 3.8 3.9 3.9 3.8 3.6 3.5 2.5 1.9 0.8 2.7 3.5 3.6 3.8 4.8 5.4 5.7 5.6 6.5 7.1 6.7 3.9 4.1 2.4 2.8 4.2 5.1 5.7 6.3 6.7 6.9 6.9
6.3 5.1 4.4 6.3 2.4 3.5 5.2 6.3 6.4 4.3 3.6 3.8 6.5 6.5 6.1 4.3 3.6 5.0 4.9 4.7 3.8 3.8 2.3 1.3 -0.1 -1.7 0.2 0.4 -0.2 0.7 0.3 0.6 2.0 4.0 2.1 3.5 0.8 2.5 2.7 4.5 6.2 6.9 6.7 6.0 4.9 6.2 6.1 5.9 6.3 7.0 7.4 7.2 6.6 6.4
4.3 4.5 3.6 4.8 6.5 6.5 3.5 2.9 1.1 0.1 1.2 2.1 2.3 3.7 4.4 2.7 1.4 1.3 2.2 1.8 1.5 0.7 0.7 0.4 -1.5 -1.1 -0.8 -0.7 -0.4 0.0 -1.2 -1.1 0.0 2.6 4.8 4.3 5.2 6.0 4.7 5.3 5.5 6.1 6.7 6.8 6.7 6.6 6.1 6.6 6.1 5.4 5.2 5.6 5.8 5.9
3.6 4.1 2.9 3.7 6.4 2.0 2.5 -1.8 -2.5 -0.4 0.2 1.7 0.2 3.7 4.6 1.5 -0.4 -0.3 0.4 -0.3 0.2 -0.9 0.2 -0.2 -1.2 -3.5 -1.3 -1.6 -0.3 -0.3 1.4 -0.4 0.0 4.5 4.8 3.8 4.6 4.4 4.8 5.4 5.9 6.0 6.4 6.8 7.0 6.8 6.3 5.9 5.9 6.0 6.2 6.6 6.9 7.0
2.4 4.2 5.8 6.5 5.2 2.4 -0.3 0.5 -0.8 -0.5 -2.2 -1.1 -0.1 -4.4 -2.2 -1.5 0.4 -1.9 -1.3 0.2 1.2 0.4 -0.1 -1.0 -1.7 0.3 0.1 1.6 0.6 -0.2 1.0 1.5 0.1 -1.1 0.8 1.4 3.0 3.9 5.0 6.0 7.0 7.3 7.4 7.0 6.6 6.4 6.5 6.5 6.7 6.9 7.3 7.2 7.0 6.4
4.3 3.6 3.7 4.8 4.6 4.5 2.3 1.5 1.2 1.5 -1.7 -1.6 -2.0 -3.2 -1.4 1.2 3.3 -0.1 -2.1 -1.9 1.2 0.8 1.0 0.6 -0.5 -1.6 -0.6 0.5 0.4 -0.7 -0.3 -2.1 -1.8 0.4 2.8 3.6 3.0 5.0 6.8 7.3 6.8 6.4 6.4 6.8 7.2 7.4 7.5 7.4 7.3 7.2 6.6 5.5 4.7 4.4
Wind_Speed
26 27 27 27 27 26 25 25 24 22 21 21 21 19 20 20 17 6 0 6 4 3 3 5 4 4 3 3 4 3 3 4 3 3 3 3 3 3 2 2 1 3 2 3 2 2 8 4 7 1 6 15 14 12
26 27 27 27 27 26 25 24 22 21 20 19 19 19 19 18 17 9 4 4 3 4 3 2 2 5 5 6 5 1 5 3 4 3 1 2 1 1 3 4 4 4 6 3 4 5 6 12 10 12 11 14 16 12
27 27 26 26 25 24 23 22 21 20 19 18 18 18 17 18 19 9 3 1 4 3 3 4 1 2 3 6 6 4 2 4 2 3 2 2 3 3 3 5 5 4 2 5 3 13 12 12 14 14 16 16 16 14
26 25 25 25 25 24 23 22 21 19 19 18 17 17 16 16 16 11 4 2 4 3 3 4 3 3 2 2 5 5 5 3 5 3 3 3 2 4 3 5 6 4 3 7 9 12 11 12 10 9 11 12 14 16
24 24 24 24 24 23 22 21 20 18 17 17 16 15 14 12 12 10 3 3 3 4 3 3 6 5 6 5 6 4 5 4 2 2 2 3 3 2 3 1 4 4 5 3 9 13 11 16 11 15 14 15 15 14
24 23 23 23 22 21 20 19 19 18 16 15 14 13 11 10 7 4 3 3 4 3 3 2 4 5 5 3 5 5 5 3 3 4 3 3 4 3 1 3 5 6 4 7 14 6 9 13 12 14 16 17 16 17
23 23 23 22 22 21 19 18 17 16 15 14 13 11 9 8 4 3 3 3 3 2 3 3 3 4 4 3 2 1 2 3 3 2 2 4 3 4 2 9 20 14 13 6 7 8 8 10 14 16 16 18 20 18
21 21 21 20 19 18 17 16 15 13 13 11 11 9 9 10 6 4 3 6 4 3 2 2 3 4 2 1 1 1 2 1 1 3 1 3 0 3 4 8 6 7 10 5 7 8 10 12 13 15 15 16 17 17
18 18 18 17 17 16 16 14 13 11 10 11 12 10 4 3 2 1 5 8 4 3 2 2 2 3 3 2 1 2 2 0 0 2 3 4 2 4 8 6 8 6 5 7 9 9 11 14 16 16 17 17 16 17
17 17 16 16 15 14 13 12 12 13 12 9 4 3 3 1 9 4 4 2 2 3 2 1 1 2 2 1 2 2 1 2 2 4 3 3 3 8 5 2 3 4 5 5 8 15 15 16 17 18 17 15 14 15
15 15 15 14 14 13 12 12 12 12 6 3 2 1 0 2 2 3 2 3 1 1 2 3 4 3 1 2 3 2 2 2 2 3 3 2 2 3 4 4 3 3 4 4 4 8 11 12 15 16 17 16 15 15
15 14 14 13 12 11 10 9 7 3 1 2 2 3 2 2 3 4 1 3 2 3 2 3 4 4 2 2 3 2 2 0 4 3 2 2 3 4 3 2 3 4 5 5 7 8 10 11 13 14 14 14 14 14
14 12 11 10 9 8 8 6 8 8 4 2 3 3 2 2 5 4 2 3 1 2 2 1 1 2 1 1 1 0 2 4 1 2 2 2 2 3 3 0 3 4 4 6 8 8 8 10 11 12 13 13 15 13
12 10 9 7 6 7 7 5 3 4 3 2 3 2 3 3 3 3 2 2 3 1 3 1 2 3 2 3 2 2 4 1 2 2 3 2 2 3 1 1 2 5 6 6 8 10 10 9 11 12 11 10 13 14
9 8 6 5 6 8 6 7 6 2 2 1 2 3 4 4 2 4 3 0 2 2 2 3 2 2 2 2 2 3 2 3 3 1 1 2 5 3 2 1 3 5 5 5 7 7 9 9 9 9 11 9 8 12
7 5 2 6 7 6 12 8 2 1 1 1 3 1 2 2 4 2 0 2 2 1 3 2 1 2 3 2 2 5 2 3 3 2 2 2 4 3 4 2 3 4 5 5 6 5 7 7 8 10 11 10 8 9
9 2 9 11 11 14 11 2 2 0 3 2 3 2 3 2 4 4 3 3 1 2 1 1 1 6 1 2 3 3 4 3 3 3 3 5 6 6 5 4 4 5 5 5 4 5 4 5 5 5 9 11 8 7
1 4 15 16 10 4 1 1 1 3 5 4 2 4 3 3 3 3 3 3 3 2 2 3 1 2 4 3 4 3 3 3 5 6 5 6 6 6 5 5 4 5 5 6 5 5 4 4 4 4 5 8 9 10
3 5 14 18 7 4 3 3 3 3 6 3 3 2 3 3 3 3 3 4 4 3 2 1 4 3 4 3 4 3 3 3 3 4 3 3 3 3 4 4 5 5 6 4 3 3 4 5 5 4 3 3 7 9
4 12 19 12 3 1 3 3 3 3 3 3 0 2 3 3 3 3 4 3 4 3 4 4 5 7 3 3 3 3 3 3 2 1 2 3 3 3 5 4 4 5 4 5 4 3 3 3 3 3 2 2 5 7
5 6 7 3 1 3 3 2 3 3 3 2 2 2 3 2 2 3 5 4 3 3 4 5 4 5 4 3 3 3 4 4 4 4 3 2 3 2 3 4 4 3 2 3 3 4 3 3 3 2 2 3 3 4
2 12 2 2 1 2 3 3 3 2 1 2 2 2 2 2 3 3 2 2 3 5 4 3 3 2 3 4 1 5 6 8 8 5 7 5 4 4 3 4 3 2 3 3 2 2 3 2 2 2 2 4 4 4
8 3 3 3 2 2 6 1 2 2 1 3 1 1 3 2 3 2 1 3 1 3 3 4 4 5 7 7 6 4 2 5 4 5 6 6 5 5 2 2 2 2 3 3 3 3 3 5 5 4 4 5 4 6
6 3 4 5 7 4 1 1 2 2 2 1 2 3 3 3 1 1 3 2 2 2 4 5 5 4 4 8 6 4 5 3 4 3 5 5 4 3 4 4 4 4 4 5 5 5 6 6 6 6 6 6 6 5
4 6 4 6 3 2 3 2 2 2 4 4 3 4 4 2 2 3 6 4 4 4 3 2 2 2 2 2 2 2 5 4 3 4 1 3 3 2 3 2 2 3 4 5 6 7 7 6 4 5 6 6 8 9
6 7 11 8 3 5 6 4 5 7 4 3 5 3 0 2 2 6 3 3 3 3 3 3 3 1 1 1 1 1 2 2 1 1 2 2 1 1 2 3 2 3 1 1 2 6 8 8 10 13 10 9 9 10
6 7 5 4 3 3 1 2 2 2 4 5 3 1 1 3 5 2 1 1 2 2 2 2 3 3 2 2 0 1 1 1 0 2 3 2 1 1 0 2 4 4 4 3 3 4 7 10 11 11 12 11 9 9
5 4 7 5 4 3 5 3 4 5 4 3 2 2 4 5 4 3 3 2 3 3 4 2 2 2 2 2 2 0 2 3 3 3 3 3 2 2 3 3 6 13 9 4 4 4 5 7 11 12 13 13 12 10
4 3 4 5 2 4 6 7 5 4 3 4 5 4 4 2 3 3 2 3 3 4 3 2 2 1 2 2 2 0 1 2 4 7 7 7 4 4 3 3 5 6 5 7 9 9 11 10 11 12 13 11 12 11
4 4 4 4 7 7 5 5 4 3 2 3 2 1 2 2 2 0 4 4 4 4 4 4 3 3 3 2 2 3 2 2 3 3 4 5 6 7 6 8 7 6 7 7 9 9 11 11 10 9 8 9 9 10
3 4 3 4 5 3 4 2 2 2 1 2 1 3 5 3 3 1 3 3 4 4 4 2 2 2 4 2 2 2 4 3 3 4 4 4 6 7 7 8 8 8 8 9 9 10 11 11 10 12 13 13 14 12
3 6 5 3 2 2 3 2 1 2 2 2 3 0 3 3 2 2 2 3 3 2 4 4 4 3 4 3 3 3 5 3 3 3 6 5 6 7 8 8 8 7 10 11 11 11 13 14 12 12 13 16 13 14
2 2 2 3 2 1 2 3 4 4 3 2 3 3 4 4 5 3 2 1 4 4 4 4 3 3 4 5 3 2 2 3 6 7 10 10 10 11 9 8 8 9 12 11 11 11 13 15 13 13 14 15 16 16
Wind_Direction
102 104 105 106 109 110 110 108 106 104 99 93 87 78 66 57 50 72 68 19 99 97 350 40 46 90 66 88 133 232 44 5 50 93 131 228 200 222 284 185 281 221 203 242 206 181 283 182 338 257 268 290 284 277
100 103 105 108 110 111 111 111 110 104 98 95 90 82 70 55 47 64 49 1 41 79 173 302 224 180 146 161 127 115 161 167 177 102 97 108 279 349 233 267 212 259 190 212 200 231 264 286 273 276 263 267 278 272
101 104 107 109 110 108 107 105 104 105 102 98 96 90 79 67 59 79 110 36 60 69 354 37 30 328 155 176 159 126 289 165 99 128 144 194 225 161 211 242 238 259 240 231 316 255 270 277 282 278 277 277 281 276
104 106 107 108 108 109 109 108 106 103 101 97 93 87 79 72 63 59 66 14 76 104 106 272 327 290 339 120 163 166 156 85 114 110 125 165 191 186 228 238 239 216 272 246 266 286 278 270 270 296 311 302 296 291
103 104 107 109 109 109 110 110 108 107 103 98 91 85 83 79 77 77 71 33 123 120 178 276 316 269 272 177 200 172 155 132 134 94 115 209 220 201 250 289 255 188 219 209 270 283 278 300 318 307 300 303 301 302
106 107 106 107 107 107 106 108 108 105 104 103 102 101 94 85 86 69 58 353 30 89 85 14 296 306 320 147 169 193 189 158 144 148 202 233 240 132 165 252 224 221 246 276 289 333 304 296 294 297 302 301 300 294
104 104 104 106 109 110 110 112 114 113 109 105 98 91 82 73 69 98 164 198 136 71 76 0 329 280 307 77 39 124 113 169 148 172 182 191 209 166 220 261 275 289 296 327 345 313 293 306 307 309 312 307 303 298
103 106 107 109 112 115 115 114 113 109 102 97 95 98 95 86 76 37 342 113 84 89 85 88 290 354 350 356 304 161 159 65 295 196 81 172 221 188 252 252 299 345 333 316 326 310 299 304 311 309 313 312 307 301
104 104 107 112 115 117 116 114 109 104 103 107 110 106 59 37 63 126 101 89 75 122 124 90 139 248 348 327 265 354 120 60 237 198 209 136 206 218 241 281 321 314 296 299 315 325 326 326 321 321 322 318 314 310
107 109 113 114 117 119 114 107 100 104 109 106 49 52 12 336 107 56 22 44 35 345 52 185 218 275 94 3 315 30 11 218 208 229 122 175 242 244 243 270 239 274 287 314 333 334 329 328 328 323 323 317 316 311
113 114 115 124 126 123 116 106 109 107 64 47 57 86 339 131 53 36 31 84 325 339 211 231 202 214 241 164 220 195 224 251 224 238 200 231 209 229 125 172 220 291 328 346 323 309 311 313 317 323 324 324 320 318
125 122 122 124 126 126 124 127 133 55 120 183 151 137 80 51 38 69 300 320 186 237 202 180 230 198 258 191 218 193 207 203 245 131 213 222 228 202 183 234 305 348 12 342 327 306 311 320 317 319 321 322 323 322
125 124 124 127 133 141 149 142 117 30 3 32 53 63 68 331 37 120 250 282 297 238 222 204 289 189 219 224 278 184 230 234 109 223 218 191 222 181 198 282 341 347 334 313 315 303 299 313 323 326 328 329 331 326
134 134 136 140 148 164 162 157 182 5 56 74 100 326 147 288 239 200 216 239 256 193 311 239 232 189 208 201 189 219 234 296 286 236 180 225 249 183 137 49 325 311 317 304 301 300 300 306 315 315 323 331 333 334
143 144 138 132 129 130 135 129 122 60 77 262 102 232 217 222 235 222 235 256 289 251 317 342 336 139 211 247 209 235 245 238 218 276 197 191 257 204 211 300 327 312 304 306 300 299 303 301 305 305 316 323 322 338
140 117 216 180 163 149 135 120 75 59 328 222 225 288 268 61 296 341 258 235 260 294 313 97 244 9 267 231 226 233 151 210 248 210 184 242 263 244 244 240 280 285 283 278 285 284 298 302 309 307 312 319 328 331
157 233 196 179 168 154 149 85 67 121 214 237 252 203 168 188 213 225 189 232 226 73 242 83 49 227 356 262 242 176 174 208 221 239 224 229 224 235 235 244 261 274 283 282 276 285 271 285 299 318 333 332 322 320
251 302 166 150 125 91 83 83 186 220 239 235 205 240 207 194 209 243 227 198 128 171 157 230 214 247 219 232 258 236 224 224 229 239 238 234 236 231 220 240 259 264 276 276 270 278 275 305 312 304 309 328 333 340
201 164 148 138 140 136 177 206 218 251 232 230 240 232 196 236 226 217 196 212 187 176 168 232 237 221 225 224 210 217 230 213 222 236 233 232 207 217 263 276 270 274 275 264 271 284 275 284 280 286 299 327 345 338
148 164 152 150 118 141 226 229 198 238 257 237 266 239 201 219 227 215 218 188 166 169 207 218 219 236 205 239 195 221 216 203 169 287 275 272 214 215 242 260 259 268 277 286 282 275 294 309 302 302 305 320 341 333
115 169 152 99 185 211 240 226 240 218 246 235 244 156 246 306 245 225 243 165 156 201 236 226 239 249 237 234 223 200 191 186 206 200 211 262 280 231 271 277 267 264 256 281 279 295 315 273 277 316 320 315 291 302
147 136 101 147 204 268 252 225 212 266 252 246 321 209 253 272 263 236 175 136 217 228 209 228 252 271 297 288 5 37 32 33 30 13 355 333 329 314 281 263 262 263 290 271 257 254 273 292 324 304 319 301 295 289
135 144 156 168 203 237 253 93 200 237 244 263 353 244 266 251 234 113 224 207 208 8 356 42 36 43 55 38 65 34 48 346 317 292 282 275 268 275 313 343 15 3 330 305 307 359 351 328 326 323 304 302 299 303
157 188 196 205 196 240 219 245 221 242 287 268 237 262 251 227 225 158 226 185 120 94 69 58 53 36 11 1 345 321 332 298 302 349 20 13 13 8 356 338 333 345 22 23 6 342 332 323 308 306 298 297 293 284
208 209 200 230 254 148 188 239 241 208 233 222 215 264 258 147 203 236 239 182 160 137 148 172 163 190 267 271 287 14 52 27 4 337 359 359 330 323 320 316 358 65 29 12 352 334 322 313 293 286 289 286 294 298
210 207 186 192 225 169 197 195 208 211 197 223 236 244 89 151 182 255 182 153 161 172 192 191 204 254 287 4 48 5 307 316 357 7 300 331 320 12 314 312 310 299 1 204 260 307 311 315 314 312 305 301 300 303
214 206 191 200 182 175 264 269 226 155 199 216 237 272 189 237 244 227 178 218 155 205 183 154 136 143 174 214 291 335 314 5 167 250 264 280 298 323 208 222 274 260 270 247 244 260 282 302 306 303 300 299 295 293
209 182 180 189 192 183 179 200 187 208 221 228 95 192 211 210 235 188 185 184 175 150 136 123 121 139 151 166 184 134 344 345 339 343 340 337 316 323 299 291 290 287 289 253 251 251 256 275 290 293 292 290 294 294
199 186 135 187 204 196 200 191 211 218 196 160 179 224 241 209 180 153 188 172 145 129 136 134 295 34 40 350 13 22 118 70 38 331 307 296 310 294 269 285 302 304 309 295 284 274 279 282 285 288 290 294 294 293
219 160 154 175 179 215 218 190 208 220 190 178 157 19 314 291 232 123 129 137 146 171 183 182 180 140 191 160 272 322 300 194 179 217 283 290 294 307 307 303 295 292 292 292 291 287 281 289 289 287 283 282 283 285
160 158 149 181 220 227 219 190 26 80 100 202 235 190 237 228 319 282 169 163 152 134 128 154 214 205 166 186 179 241 291 280 212 239 258 270 291 294 292 288 289 289 288 287 286 291 291 291 287 286 284 282 282 283
147 177 152 173 275 297 23 100 175 190 271 165 253 2 1 45 288 270 233 124 126 162 207 165 168 245 215 209 214 228 222 260 279 267 278 276 282 277 284 288 286 288 295 293 288 285 284 284 284 284 290 290 290 296
98 101 99 106 48 11 325 79 12 323 354 331 280 208 196 168 222 244 300 147 171 184 197 199 208 210 204 204 211 238 266 247 271 285 304 298 291 297 303 301 301 297 294 293 293 293 294 293 294 296 300 296 293 292